Year,Month,Day,Hour,Minute,Value (Times are PST for temperature in C)
2013,10,23,00,00,7.50
2013,10,23,00,01,7.50
2013,10,23,00,02,7.50
2013,10,23,00,03,7.50
2013,10,23,00,04,7.50
2013,10,23,00,05,7.50
2013,10,23,00,06,7.50
2013,10,23,00,07,7.50
2013,10,23,00,08,7.50
2013,10,23,00,09,7.50
2013,10,23,00,10,7.40
2013,10,23,00,11,7.40
2013,10,23,00,12,7.40
2013,10,23,00,13,7.40
2013,10,23,00,14,7.40
2013,10,23,00,15,7.40
2013,10,23,00,16,7.40
2013,10,23,00,17,7.40
2013,10,23,00,18,7.40
2013,10,23,00,19,7.40
2013,10,23,00,20,7.40
2013,10,23,00,21,7.40
2013,10,23,00,22,7.40
2013,10,23,00,23,7.30
2013,10,23,00,24,7.30
2013,10,23,00,25,7.30
2013,10,23,00,26,7.30
2013,10,23,00,27,7.20
2013,10,23,00,28,7.20
2013,10,23,00,29,7.20
2013,10,23,00,30,7.20
2013,10,23,00,31,7.20
2013,10,23,00,32,7.20
2013,10,23,00,33,7.20
2013,10,23,00,34,7.20
2013,10,23,00,35,7.20
2013,10,23,00,36,7.20
2013,10,23,00,37,7.20
2013,10,23,00,38,7.20
2013,10,23,00,39,7.20
2013,10,23,00,40,7.20
2013,10,23,00,41,7.20
2013,10,23,00,42,7.20
2013,10,23,00,43,7.20
2013,10,23,00,44,7.20
2013,10,23,00,45,7.20
2013,10,23,00,46,7.20
2013,10,23,00,47,7.20
2013,10,23,00,48,7.20
2013,10,23,00,49,7.20
2013,10,23,00,50,7.20
2013,10,23,00,51,7.10
2013,10,23,00,52,7.10
2013,10,23,00,53,7.10
2013,10,23,00,54,7.10
2013,10,23,00,55,7.10
2013,10,23,00,56,7.10
2013,10,23,00,57,7.10
2013,10,23,00,58,7.10
2013,10,23,00,59,7.10
2013,10,23,01,00,7.10
2013,10,23,01,01,7.20
2013,10,23,01,02,7.20
2013,10,23,01,03,7.20
2013,10,23,01,04,7.10
2013,10,23,01,05,7.10
2013,10,23,01,06,7.10
2013,10,23,01,07,7.10
2013,10,23,01,08,7.10
2013,10,23,01,09,7.00
2013,10,23,01,10,7.00
2013,10,23,01,11,7.00
2013,10,23,01,12,6.90
2013,10,23,01,13,6.90
2013,10,23,01,14,6.90
2013,10,23,01,15,6.90
2013,10,23,01,16,6.90
2013,10,23,01,17,6.90
2013,10,23,01,18,6.90
2013,10,23,01,19,6.90
2013,10,23,01,20,6.90
2013,10,23,01,21,6.90
2013,10,23,01,22,6.90
2013,10,23,01,23,6.90
2013,10,23,01,24,6.80
2013,10,23,01,25,6.80
2013,10,23,01,26,6.80
2013,10,23,01,27,6.80
2013,10,23,01,28,6.80
2013,10,23,01,29,6.80
2013,10,23,01,30,6.80
2013,10,23,01,31,6.80
2013,10,23,01,32,6.80
2013,10,23,01,33,6.80
2013,10,23,01,34,6.80
2013,10,23,01,35,6.80
2013,10,23,01,36,6.80
2013,10,23,01,37,6.80
2013,10,23,01,38,6.80
2013,10,23,01,39,6.80
2013,10,23,01,40,6.70
2013,10,23,01,41,6.70
2013,10,23,01,42,6.70
2013,10,23,01,43,6.70
2013,10,23,01,44,6.70
2013,10,23,01,45,6.70
2013,10,23,01,46,6.60
2013,10,23,01,47,6.60
2013,10,23,01,48,6.60
2013,10,23,01,49,6.60
2013,10,23,01,50,6.60
2013,10,23,01,51,6.60
2013,10,23,01,52,6.60
2013,10,23,01,53,6.60
2013,10,23,01,54,6.60
2013,10,23,01,55,6.60
2013,10,23,01,56,6.60
2013,10,23,01,57,6.60
2013,10,23,01,58,6.60
2013,10,23,01,59,6.60
2013,10,23,02,00,6.60
2013,10,23,02,01,6.60
2013,10,23,02,02,6.60
2013,10,23,02,03,6.60
2013,10,23,02,04,6.70
2013,10,23,02,05,6.70
2013,10,23,02,06,6.70
2013,10,23,02,07,6.70
2013,10,23,02,08,6.70
2013,10,23,02,09,6.70
2013,10,23,02,10,6.70
2013,10,23,02,11,6.70
2013,10,23,02,12,6.70
2013,10,23,02,13,6.70
2013,10,23,02,14,6.70
2013,10,23,02,15,6.80
2013,10,23,02,16,6.80
2013,10,23,02,17,6.80
2013,10,23,02,18,6.80
2013,10,23,02,19,6.80
2013,10,23,02,20,6.80
2013,10,23,02,21,6.70
2013,10,23,02,22,6.70
2013,10,23,02,23,6.70
2013,10,23,02,24,6.70
2013,10,23,02,25,6.70
2013,10,23,02,26,6.70
2013,10,23,02,27,6.70
2013,10,23,02,28,6.60
2013,10,23,02,29,6.60
2013,10,23,02,30,6.60
2013,10,23,02,31,6.60
2013,10,23,02,32,6.60
2013,10,23,02,33,6.60
2013,10,23,02,34,6.60
2013,10,23,02,35,6.60
2013,10,23,02,36,6.60
2013,10,23,02,37,6.60
2013,10,23,02,38,6.60
2013,10,23,02,39,6.50
2013,10,23,02,40,6.50
2013,10,23,02,41,6.50
2013,10,23,02,42,6.50
2013,10,23,02,43,6.50
2013,10,23,02,44,6.40
2013,10,23,02,45,6.40
2013,10,23,02,46,6.40
2013,10,23,02,47,6.40
2013,10,23,02,48,6.40
2013,10,23,02,49,6.40
2013,10,23,02,50,6.40
2013,10,23,02,51,6.40
2013,10,23,02,52,6.50
2013,10,23,02,53,6.50
2013,10,23,02,54,6.50
2013,10,23,02,55,6.60
2013,10,23,02,56,6.60
2013,10,23,02,57,6.60
2013,10,23,02,58,6.60
2013,10,23,02,59,6.60
2013,10,23,03,00,6.60
2013,10,23,03,01,6.60
2013,10,23,03,02,6.60
2013,10,23,03,03,6.60
2013,10,23,03,04,6.60
2013,10,23,03,05,6.60
2013,10,23,03,06,6.60
2013,10,23,03,07,6.60
2013,10,23,03,08,6.60
2013,10,23,03,09,6.60
2013,10,23,03,10,6.60
2013,10,23,03,11,6.60
2013,10,23,03,12,6.50
2013,10,23,03,13,6.50
2013,10,23,03,14,6.50
2013,10,23,03,15,6.40
2013,10,23,03,16,6.40
2013,10,23,03,17,6.40
2013,10,23,03,18,6.40
2013,10,23,03,19,6.40
2013,10,23,03,20,6.40
2013,10,23,03,21,6.40
2013,10,23,03,22,6.30
2013,10,23,03,23,6.30
2013,10,23,03,24,6.30
2013,10,23,03,25,6.30
2013,10,23,03,26,6.20
2013,10,23,03,27,6.20
2013,10,23,03,28,6.20
2013,10,23,03,29,6.20
2013,10,23,03,30,6.20
2013,10,23,03,31,6.10
2013,10,23,03,32,6.20
2013,10,23,03,33,6.20
2013,10,23,03,34,6.20
2013,10,23,03,35,6.20
2013,10,23,03,36,6.20
2013,10,23,03,37,6.20
2013,10,23,03,38,6.20
2013,10,23,03,39,6.20
2013,10,23,03,40,6.20
2013,10,23,03,41,6.20
2013,10,23,03,42,6.20
2013,10,23,03,43,6.20
2013,10,23,03,44,6.20
2013,10,23,03,45,6.20
2013,10,23,03,46,6.20
2013,10,23,03,47,6.20
2013,10,23,03,48,6.20
2013,10,23,03,49,6.30
2013,10,23,03,50,6.30
2013,10,23,03,51,6.30
2013,10,23,03,52,6.30
2013,10,23,03,53,6.30
2013,10,23,03,54,6.30
2013,10,23,03,55,6.30
2013,10,23,03,56,6.30
2013,10,23,03,57,6.30
2013,10,23,03,58,6.30
2013,10,23,03,59,6.30
2013,10,23,04,00,6.30
2013,10,23,04,01,6.30
2013,10,23,04,02,6.30
2013,10,23,04,03,6.30
2013,10,23,04,04,6.30
2013,10,23,04,05,6.20
2013,10,23,04,06,6.20
2013,10,23,04,07,6.20
2013,10,23,04,08,6.20
2013,10,23,04,09,6.20
2013,10,23,04,10,6.30
2013,10,23,04,11,6.30
2013,10,23,04,12,6.30
2013,10,23,04,13,6.30
2013,10,23,04,14,6.30
2013,10,23,04,15,6.30
2013,10,23,04,16,6.30
2013,10,23,04,17,6.40
2013,10,23,04,18,6.40
2013,10,23,04,19,6.40
2013,10,23,04,20,6.40
2013,10,23,04,21,6.40
2013,10,23,04,22,6.40
2013,10,23,04,23,6.40
2013,10,23,04,24,6.40
2013,10,23,04,25,6.40
2013,10,23,04,26,6.40
2013,10,23,04,27,6.40
2013,10,23,04,28,6.40
2013,10,23,04,29,6.40
2013,10,23,04,30,6.40
2013,10,23,04,31,6.30
2013,10,23,04,32,6.30
2013,10,23,04,33,6.30
2013,10,23,04,34,6.30
2013,10,23,04,35,6.30
2013,10,23,04,36,6.30
2013,10,23,04,37,6.30
2013,10,23,04,38,6.20
2013,10,23,04,39,6.20
2013,10,23,04,40,6.20
2013,10,23,04,41,6.10
2013,10,23,04,42,6.10
2013,10,23,04,43,6.00
2013,10,23,04,44,6.00
2013,10,23,04,45,5.90
2013,10,23,04,46,5.90
2013,10,23,04,47,5.90
2013,10,23,04,48,5.90
2013,10,23,04,49,5.90
2013,10,23,04,50,5.90
2013,10,23,04,51,5.90
2013,10,23,04,52,5.90
2013,10,23,04,53,5.90
2013,10,23,04,54,5.90
2013,10,23,04,55,5.90
2013,10,23,04,56,5.90
2013,10,23,04,57,5.90
2013,10,23,04,58,5.90
2013,10,23,04,59,5.90
2013,10,23,05,00,5.90
2013,10,23,05,01,5.90
2013,10,23,05,02,5.90
2013,10,23,05,03,5.90
2013,10,23,05,04,5.90
2013,10,23,05,05,5.90
2013,10,23,05,06,5.90
2013,10,23,05,07,5.90
2013,10,23,05,08,5.90
2013,10,23,05,09,5.90
2013,10,23,05,10,5.90
2013,10,23,05,11,5.90
2013,10,23,05,12,5.90
2013,10,23,05,13,5.90
2013,10,23,05,14,5.90
2013,10,23,05,15,5.90
2013,10,23,05,16,5.90
2013,10,23,05,17,5.90
2013,10,23,05,18,6.00
2013,10,23,05,19,6.00
2013,10,23,05,20,6.00
2013,10,23,05,21,6.00
2013,10,23,05,22,6.00
2013,10,23,05,23,6.00
2013,10,23,05,24,6.10
2013,10,23,05,25,6.00
2013,10,23,05,26,6.00
2013,10,23,05,27,6.00
2013,10,23,05,28,5.90
2013,10,23,05,29,5.90
2013,10,23,05,30,5.90
2013,10,23,05,31,5.90
2013,10,23,05,32,5.90
2013,10,23,05,33,5.90
2013,10,23,05,34,5.80
2013,10,23,05,35,5.80
2013,10,23,05,36,5.80
2013,10,23,05,37,5.80
2013,10,23,05,38,5.80
2013,10,23,05,39,5.80
2013,10,23,05,40,5.80
2013,10,23,05,41,5.90
2013,10,23,05,42,5.90
2013,10,23,05,43,5.90
2013,10,23,05,44,5.90
2013,10,23,05,45,5.90
2013,10,23,05,46,6.00
2013,10,23,05,47,6.00
2013,10,23,05,48,6.00
2013,10,23,05,49,6.00
2013,10,23,05,50,6.00
2013,10,23,05,51,6.00
2013,10,23,05,52,6.00
2013,10,23,05,53,6.00
2013,10,23,05,54,6.00
2013,10,23,05,55,6.10
2013,10,23,05,56,6.10
2013,10,23,05,57,6.10
2013,10,23,05,58,6.10
2013,10,23,05,59,6.10
2013,10,23,06,00,6.10
2013,10,23,06,01,6.20
2013,10,23,06,02,6.20
2013,10,23,06,03,6.20
2013,10,23,06,04,6.20
2013,10,23,06,05,6.20
2013,10,23,06,06,6.20
2013,10,23,06,07,6.10
2013,10,23,06,08,6.10
2013,10,23,06,09,6.10
2013,10,23,06,10,6.10
2013,10,23,06,11,6.00
2013,10,23,06,12,6.00
2013,10,23,06,13,5.90
2013,10,23,06,14,5.90
2013,10,23,06,15,5.90
2013,10,23,06,16,5.90
2013,10,23,06,17,5.90
2013,10,23,06,18,5.80
2013,10,23,06,19,5.80
2013,10,23,06,20,5.80
2013,10,23,06,21,5.80
2013,10,23,06,22,5.80
2013,10,23,06,23,5.80
2013,10,23,06,24,5.80
2013,10,23,06,25,5.80
2013,10,23,06,26,5.80
2013,10,23,06,27,5.80
2013,10,23,06,28,5.80
2013,10,23,06,29,5.80
2013,10,23,06,30,5.80
2013,10,23,06,31,5.80
2013,10,23,06,32,5.80
2013,10,23,06,33,5.80
2013,10,23,06,34,5.90
2013,10,23,06,35,5.90
2013,10,23,06,36,5.90
2013,10,23,06,37,5.90
2013,10,23,06,38,5.90
2013,10,23,06,39,5.90
2013,10,23,06,40,5.90
2013,10,23,06,41,5.90
2013,10,23,06,42,5.90
2013,10,23,06,43,5.90
2013,10,23,06,44,5.80
2013,10,23,06,45,5.80
2013,10,23,06,46,5.90
2013,10,23,06,47,5.90
2013,10,23,06,48,5.90
2013,10,23,06,49,5.90
2013,10,23,06,50,5.90
2013,10,23,06,51,5.90
2013,10,23,06,52,5.90
2013,10,23,06,53,5.80
2013,10,23,06,54,5.80
2013,10,23,06,55,5.80
2013,10,23,06,56,5.80
2013,10,23,06,57,5.80
2013,10,23,06,58,5.80
2013,10,23,06,59,5.80
2013,10,23,07,00,5.80
2013,10,23,07,01,5.80
2013,10,23,07,02,5.80
2013,10,23,07,03,5.80
2013,10,23,07,04,5.80
2013,10,23,07,05,5.80
2013,10,23,07,06,5.80
2013,10,23,07,07,5.80
2013,10,23,07,08,5.80
2013,10,23,07,09,5.80
2013,10,23,07,10,5.80
2013,10,23,07,11,5.80
2013,10,23,07,12,5.80
2013,10,23,07,13,5.80
2013,10,23,07,14,5.80
2013,10,23,07,15,5.80
2013,10,23,07,16,5.80
2013,10,23,07,17,5.80
2013,10,23,07,18,5.80
2013,10,23,07,19,5.80
2013,10,23,07,20,5.80
2013,10,23,07,21,5.80
2013,10,23,07,22,5.80
2013,10,23,07,23,5.80
2013,10,23,07,24,5.80
2013,10,23,07,25,5.80
2013,10,23,07,26,5.80
2013,10,23,07,27,5.70
2013,10,23,07,28,5.70
2013,10,23,07,29,5.70
2013,10,23,07,30,5.70
2013,10,23,07,31,5.70
2013,10,23,07,32,5.70
2013,10,23,07,33,5.80
2013,10,23,07,34,5.80
2013,10,23,07,35,5.80
2013,10,23,07,36,5.80
2013,10,23,07,37,5.80
2013,10,23,07,38,5.80
2013,10,23,07,39,5.80
2013,10,23,07,40,5.80
2013,10,23,07,41,5.80
2013,10,23,07,42,5.70
2013,10,23,07,43,5.70
2013,10,23,07,44,5.70
2013,10,23,07,45,5.70
2013,10,23,07,46,5.70
2013,10,23,07,47,5.70
2013,10,23,07,48,5.70
2013,10,23,07,49,5.70
2013,10,23,07,50,5.70
2013,10,23,07,51,5.70
2013,10,23,07,52,5.70
2013,10,23,07,53,5.70
2013,10,23,07,54,5.70
2013,10,23,07,55,5.70
2013,10,23,07,56,5.80
2013,10,23,07,57,5.80
2013,10,23,07,58,5.80
2013,10,23,07,59,5.80
2013,10,23,08,00,5.80
2013,10,23,08,01,5.80
2013,10,23,08,02,5.80
2013,10,23,08,03,5.80
2013,10,23,08,04,5.80
2013,10,23,08,05,5.80
2013,10,23,08,06,5.80
2013,10,23,08,07,5.80
2013,10,23,08,08,5.80
2013,10,23,08,09,5.80
2013,10,23,08,10,5.80
2013,10,23,08,11,5.80
2013,10,23,08,12,5.80
2013,10,23,08,13,5.90
2013,10,23,08,14,5.90
2013,10,23,08,15,5.90
2013,10,23,08,16,5.90
2013,10,23,08,17,5.90
2013,10,23,08,18,5.90
2013,10,23,08,19,5.90
2013,10,23,08,20,5.90
2013,10,23,08,21,5.90
2013,10,23,08,22,5.90
2013,10,23,08,23,5.90
2013,10,23,08,24,5.90
2013,10,23,08,25,5.90
2013,10,23,08,26,5.90
2013,10,23,08,27,6.00
2013,10,23,08,28,6.00
2013,10,23,08,29,6.00
2013,10,23,08,30,6.00
2013,10,23,08,31,6.00
2013,10,23,08,32,6.00
2013,10,23,08,33,6.00
2013,10,23,08,34,6.00
2013,10,23,08,35,6.00
2013,10,23,08,36,6.00
2013,10,23,08,37,6.00
2013,10,23,08,38,6.10
2013,10,23,08,39,6.10
2013,10,23,08,40,6.00
2013,10,23,08,41,6.00
2013,10,23,08,42,6.00
2013,10,23,08,43,6.00
2013,10,23,08,44,6.10
2013,10,23,08,45,6.10
2013,10,23,08,46,6.10
2013,10,23,08,47,6.10
2013,10,23,08,48,6.10
2013,10,23,08,49,6.10
2013,10,23,08,50,6.10
2013,10,23,08,51,6.10
2013,10,23,08,52,6.10
2013,10,23,08,53,6.10
2013,10,23,08,54,6.10
2013,10,23,08,55,6.10
2013,10,23,08,56,6.20
2013,10,23,08,57,6.20
2013,10,23,08,58,6.20
2013,10,23,08,59,6.30
2013,10,23,09,00,6.30
2013,10,23,09,01,6.30
2013,10,23,09,02,6.30
2013,10,23,09,03,6.40
2013,10,23,09,04,6.40
2013,10,23,09,05,6.40
2013,10,23,09,06,6.40
2013,10,23,09,07,6.40
2013,10,23,09,08,6.40
2013,10,23,09,09,6.50
2013,10,23,09,10,6.50
2013,10,23,09,11,6.50
2013,10,23,09,12,6.50
2013,10,23,09,13,6.60
2013,10,23,09,14,6.60
2013,10,23,09,15,6.60
2013,10,23,09,16,6.60
2013,10,23,09,17,6.60
2013,10,23,09,18,6.70
2013,10,23,09,19,6.70
2013,10,23,09,20,6.70
2013,10,23,09,21,6.70
2013,10,23,09,22,6.70
2013,10,23,09,23,6.70
2013,10,23,09,24,6.80
2013,10,23,09,25,6.80
2013,10,23,09,26,6.80
2013,10,23,09,27,6.90
2013,10,23,09,28,6.90
2013,10,23,09,29,6.90
2013,10,23,09,30,7.00
2013,10,23,09,31,7.00
2013,10,23,09,32,7.10
2013,10,23,09,33,7.10
2013,10,23,09,34,7.20
2013,10,23,09,35,7.20
2013,10,23,09,36,7.20
2013,10,23,09,37,7.30
2013,10,23,09,38,7.30
2013,10,23,09,39,7.30
2013,10,23,09,40,7.40
2013,10,23,09,41,7.40
2013,10,23,09,42,7.40
2013,10,23,09,43,7.50
2013,10,23,09,44,7.50
2013,10,23,09,45,7.60
2013,10,23,09,46,7.60
2013,10,23,09,47,7.60
2013,10,23,09,48,7.70
2013,10,23,09,49,7.70
2013,10,23,09,50,7.80
2013,10,23,09,51,7.80
2013,10,23,09,52,7.90
2013,10,23,09,53,7.90
2013,10,23,09,54,8.00
2013,10,23,09,55,8.00
2013,10,23,09,56,8.10
2013,10,23,09,57,8.10
2013,10,23,09,58,8.20
2013,10,23,09,59,8.30
2013,10,23,10,00,8.40
2013,10,23,10,01,8.50
2013,10,23,10,02,8.50
2013,10,23,10,03,8.60
2013,10,23,10,04,8.60
2013,10,23,10,05,8.60
2013,10,23,10,06,8.60
2013,10,23,10,07,8.60
2013,10,23,10,08,8.60
2013,10,23,10,09,8.60
2013,10,23,10,10,8.60
2013,10,23,10,11,8.70
2013,10,23,10,12,8.70
2013,10,23,10,13,8.70
2013,10,23,10,14,8.70
2013,10,23,10,15,8.70
2013,10,23,10,16,8.80
2013,10,23,10,17,8.80
2013,10,23,10,18,8.80
2013,10,23,10,19,8.90
2013,10,23,10,20,8.90
2013,10,23,10,21,9.00
2013,10,23,10,22,9.00
2013,10,23,10,23,9.10
2013,10,23,10,24,9.10
2013,10,23,10,25,9.10
2013,10,23,10,26,9.20
2013,10,23,10,27,9.20
2013,10,23,10,28,9.20
2013,10,23,10,29,9.20
2013,10,23,10,30,9.30
2013,10,23,10,31,9.30
2013,10,23,10,32,9.30
2013,10,23,10,33,9.40
2013,10,23,10,34,9.40
2013,10,23,10,35,9.50
2013,10,23,10,36,9.60
2013,10,23,10,37,9.60
2013,10,23,10,38,9.70
2013,10,23,10,39,9.80
2013,10,23,10,40,9.80
2013,10,23,10,41,9.90
2013,10,23,10,42,9.90
2013,10,23,10,43,9.90
2013,10,23,10,44,9.90
2013,10,23,10,45,10.00
2013,10,23,10,46,10.00
2013,10,23,10,47,10.10
2013,10,23,10,48,10.10
2013,10,23,10,49,10.20
2013,10,23,10,50,10.20
2013,10,23,10,51,10.20
2013,10,23,10,52,10.30
2013,10,23,10,53,10.30
2013,10,23,10,54,10.40
2013,10,23,10,55,10.40
2013,10,23,10,56,10.50
2013,10,23,10,57,10.50
2013,10,23,10,58,10.60
2013,10,23,10,59,10.60
2013,10,23,11,00,10.70
2013,10,23,11,01,10.70
2013,10,23,11,02,10.80
2013,10,23,11,03,10.80
2013,10,23,11,04,10.90
2013,10,23,11,05,11.10
2013,10,23,11,06,11.20
2013,10,23,11,07,11.30
2013,10,23,11,08,11.40
2013,10,23,11,09,11.50
2013,10,23,11,10,11.60
2013,10,23,11,11,11.70
2013,10,23,11,12,11.80
2013,10,23,11,13,11.90
2013,10,23,11,14,12.10
2013,10,23,11,15,12.20
2013,10,23,11,16,12.40
2013,10,23,11,17,12.50
2013,10,23,11,18,12.70
2013,10,23,11,19,12.80
2013,10,23,11,20,12.90
2013,10,23,11,21,13.00
2013,10,23,11,22,13.10
2013,10,23,11,23,13.20
2013,10,23,11,24,13.30
2013,10,23,11,25,13.30
2013,10,23,11,26,13.40
2013,10,23,11,27,13.50
2013,10,23,11,28,13.60
2013,10,23,11,29,13.60
2013,10,23,11,30,13.70
2013,10,23,11,31,13.70
2013,10,23,11,32,13.70
2013,10,23,11,33,13.80
2013,10,23,11,34,13.80
2013,10,23,11,35,13.90
2013,10,23,11,36,14.00
2013,10,23,11,37,14.00
2013,10,23,11,38,14.10
2013,10,23,11,39,14.20
2013,10,23,11,40,14.30
2013,10,23,11,41,14.40
2013,10,23,11,42,14.40
2013,10,23,11,43,14.50
2013,10,23,11,44,14.60
2013,10,23,11,45,14.70
2013,10,23,11,46,14.80
2013,10,23,11,47,15.00
2013,10,23,11,48,15.00
2013,10,23,11,49,15.00
2013,10,23,11,50,15.00
2013,10,23,11,51,15.00
2013,10,23,11,52,15.00
2013,10,23,11,53,15.00
2013,10,23,11,54,15.00
2013,10,23,11,55,15.00
2013,10,23,11,56,15.00
2013,10,23,11,57,15.00
2013,10,23,11,58,15.10
2013,10,23,11,59,15.20
2013,10,23,12,00,15.30
2013,10,23,12,01,15.40
2013,10,23,12,02,15.50
2013,10,23,12,03,15.60
2013,10,23,12,04,15.60
2013,10,23,12,05,15.70
2013,10,23,12,06,15.90
2013,10,23,12,07,16.00
2013,10,23,12,08,16.10
2013,10,23,12,09,16.10
2013,10,23,12,10,16.20
2013,10,23,12,11,16.20
2013,10,23,12,12,16.20
2013,10,23,12,13,16.20
2013,10,23,12,14,16.20
2013,10,23,12,15,16.30
2013,10,23,12,16,16.30
2013,10,23,12,17,16.30
2013,10,23,12,18,16.30
2013,10,23,12,19,16.30
2013,10,23,12,20,16.30
2013,10,23,12,21,16.40
2013,10,23,12,22,16.50
2013,10,23,12,23,16.60
2013,10,23,12,24,16.70
2013,10,23,12,25,16.80
2013,10,23,12,26,16.90
2013,10,23,12,27,17.00
2013,10,23,12,28,17.10
2013,10,23,12,29,17.30
2013,10,23,12,30,17.30
2013,10,23,12,31,17.40
2013,10,23,12,32,17.50
2013,10,23,12,33,17.50
2013,10,23,12,34,17.60
2013,10,23,12,35,17.70
2013,10,23,12,36,17.70
2013,10,23,12,37,17.80
2013,10,23,12,38,17.80
2013,10,23,12,39,17.90
2013,10,23,12,40,18.00
2013,10,23,12,41,18.00
2013,10,23,12,42,18.10
2013,10,23,12,43,18.10
2013,10,23,12,44,18.10
2013,10,23,12,45,18.10
2013,10,23,12,46,18.10
2013,10,23,12,47,18.10
2013,10,23,12,48,18.10
2013,10,23,12,49,18.10
2013,10,23,12,50,18.10
2013,10,23,12,51,18.10
2013,10,23,12,52,18.10
2013,10,23,12,53,18.10
2013,10,23,12,54,18.10
2013,10,23,12,55,18.20
2013,10,23,12,56,18.20
2013,10,23,12,57,18.20
2013,10,23,12,58,18.30
2013,10,23,12,59,18.30
2013,10,23,13,00,18.30
2013,10,23,13,01,18.30
2013,10,23,13,02,18.30
2013,10,23,13,03,18.30
2013,10,23,13,04,18.30
2013,10,23,13,05,18.40
2013,10,23,13,06,18.40
2013,10,23,13,07,18.40
2013,10,23,13,08,18.50
2013,10,23,13,09,18.50
2013,10,23,13,10,18.50
2013,10,23,13,11,18.60
2013,10,23,13,12,18.60
2013,10,23,13,13,18.70
2013,10,23,13,14,18.70
2013,10,23,13,15,18.80
2013,10,23,13,16,18.80
2013,10,23,13,17,18.80
2013,10,23,13,18,18.70
2013,10,23,13,19,18.80
2013,10,23,13,20,18.80
2013,10,23,13,21,18.80
2013,10,23,13,22,18.90
2013,10,23,13,23,18.90
2013,10,23,13,24,19.00
2013,10,23,13,25,19.00
2013,10,23,13,26,19.10
2013,10,23,13,27,19.20
2013,10,23,13,28,19.30
2013,10,23,13,29,19.30
2013,10,23,13,30,19.40
2013,10,23,13,31,19.40
2013,10,23,13,32,19.50
2013,10,23,13,33,19.50
2013,10,23,13,34,19.60
2013,10,23,13,35,19.60
2013,10,23,13,36,19.70
2013,10,23,13,37,19.70
2013,10,23,13,38,19.80
2013,10,23,13,39,19.80
2013,10,23,13,40,19.70
2013,10,23,13,41,19.70
2013,10,23,13,42,19.70
2013,10,23,13,43,19.70
2013,10,23,13,44,19.70
2013,10,23,13,45,19.70
2013,10,23,13,46,19.70
2013,10,23,13,47,19.70
2013,10,23,13,48,19.70
2013,10,23,13,49,19.70
2013,10,23,13,50,19.70
2013,10,23,13,51,19.80
2013,10,23,13,52,19.80
2013,10,23,13,53,19.80
2013,10,23,13,54,19.90
2013,10,23,13,55,19.90
2013,10,23,13,56,19.90
2013,10,23,13,57,20.00
2013,10,23,13,58,20.00
2013,10,23,13,59,20.10
2013,10,23,14,00,20.10
2013,10,23,14,01,20.10
2013,10,23,14,02,20.20
2013,10,23,14,03,20.10
2013,10,23,14,04,20.10
2013,10,23,14,05,20.10
2013,10,23,14,06,20.10
2013,10,23,14,07,20.10
2013,10,23,14,08,20.10
2013,10,23,14,09,20.10
2013,10,23,14,10,20.10
2013,10,23,14,11,20.10
2013,10,23,14,12,20.10
2013,10,23,14,13,20.20
2013,10,23,14,14,20.20
2013,10,23,14,15,20.20
2013,10,23,14,16,20.20
2013,10,23,14,17,20.30
2013,10,23,14,18,20.30
2013,10,23,14,19,20.30
2013,10,23,14,20,20.40
2013,10,23,14,21,20.40
2013,10,23,14,22,20.40
2013,10,23,14,23,20.40
2013,10,23,14,24,20.40
2013,10,23,14,25,20.40
2013,10,23,14,26,20.50
2013,10,23,14,27,20.50
2013,10,23,14,28,20.50
2013,10,23,14,29,20.60
2013,10,23,14,30,20.60
2013,10,23,14,31,20.60
2013,10,23,14,32,20.60
2013,10,23,14,33,20.70
2013,10,23,14,34,20.70
2013,10,23,14,35,20.70
2013,10,23,14,36,20.80
2013,10,23,14,37,20.80
2013,10,23,14,38,20.90
2013,10,23,14,39,20.90
2013,10,23,14,40,21.00
2013,10,23,14,41,21.00
2013,10,23,14,42,21.00
2013,10,23,14,43,21.00
2013,10,23,14,44,21.00
2013,10,23,14,45,21.00
2013,10,23,14,46,21.00
2013,10,23,14,47,21.00
2013,10,23,14,48,21.00
2013,10,23,14,49,20.90
2013,10,23,14,50,21.00
2013,10,23,14,51,20.90
2013,10,23,14,52,21.00
2013,10,23,14,53,21.00
2013,10,23,14,54,20.90
2013,10,23,14,55,21.00
2013,10,23,14,56,20.90
2013,10,23,14,57,20.90
2013,10,23,14,58,21.00
2013,10,23,14,59,20.90
2013,10,23,15,00,20.90
2013,10,23,15,01,20.90
2013,10,23,15,02,20.90
2013,10,23,15,03,20.90
2013,10,23,15,04,20.90
2013,10,23,15,05,20.80
2013,10,23,15,06,20.80
2013,10,23,15,07,20.70
2013,10,23,15,08,20.70
2013,10,23,15,09,20.70
2013,10,23,15,10,20.70
2013,10,23,15,11,20.60
2013,10,23,15,12,20.50
2013,10,23,15,13,20.40
2013,10,23,15,14,20.40
2013,10,23,15,15,20.30
2013,10,23,15,16,20.30
2013,10,23,15,17,20.30
2013,10,23,15,18,20.30
2013,10,23,15,19,20.30
2013,10,23,15,20,20.30
2013,10,23,15,21,20.30
2013,10,23,15,22,20.40
2013,10,23,15,23,20.40
2013,10,23,15,24,20.40
2013,10,23,15,25,20.40
2013,10,23,15,26,20.40
2013,10,23,15,27,20.40
2013,10,23,15,28,20.30
2013,10,23,15,29,20.30
2013,10,23,15,30,20.30
2013,10,23,15,31,20.30
2013,10,23,15,32,20.20
2013,10,23,15,33,20.20
2013,10,23,15,34,20.10
2013,10,23,15,35,20.10
2013,10,23,15,36,20.00
2013,10,23,15,37,19.90
2013,10,23,15,38,19.90
2013,10,23,15,39,19.80
2013,10,23,15,40,19.70
2013,10,23,15,41,19.70
2013,10,23,15,42,19.70
2013,10,23,15,43,19.70
2013,10,23,15,44,19.70
2013,10,23,15,45,19.60
2013,10,23,15,46,19.70
2013,10,23,15,47,19.70
2013,10,23,15,48,19.70
2013,10,23,15,49,19.70
2013,10,23,15,50,19.70
2013,10,23,15,51,19.70
2013,10,23,15,52,19.80
2013,10,23,15,53,19.80
2013,10,23,15,54,19.80
2013,10,23,15,55,19.80
2013,10,23,15,56,19.80
2013,10,23,15,57,19.70
2013,10,23,15,58,19.70
2013,10,23,15,59,19.70
2013,10,23,16,00,19.70
2013,10,23,16,01,19.80
2013,10,23,16,02,19.70
2013,10,23,16,03,19.70
2013,10,23,16,04,19.70
2013,10,23,16,05,19.70
2013,10,23,16,06,19.70
2013,10,23,16,07,19.70
2013,10,23,16,08,19.70
2013,10,23,16,09,19.70
2013,10,23,16,10,19.80
2013,10,23,16,11,19.80
2013,10,23,16,12,19.80
2013,10,23,16,13,19.90
2013,10,23,16,14,19.90
2013,10,23,16,15,19.90
2013,10,23,16,16,19.90
2013,10,23,16,17,20.00
2013,10,23,16,18,20.00
2013,10,23,16,19,20.00
2013,10,23,16,20,19.90
2013,10,23,16,21,19.90
2013,10,23,16,22,19.90
2013,10,23,16,23,19.90
2013,10,23,16,24,19.90
2013,10,23,16,25,19.90
2013,10,23,16,26,19.80
2013,10,23,16,27,19.80
2013,10,23,16,28,19.70
2013,10,23,16,29,19.70
2013,10,23,16,30,19.70
2013,10,23,16,31,19.60
2013,10,23,16,32,19.60
2013,10,23,16,33,19.50
2013,10,23,16,34,19.50
2013,10,23,16,35,19.40
2013,10,23,16,36,19.40
2013,10,23,16,37,19.40
2013,10,23,16,38,19.40
2013,10,23,16,39,19.40
2013,10,23,16,40,19.40
2013,10,23,16,41,19.40
2013,10,23,16,42,19.40
2013,10,23,16,43,19.40
2013,10,23,16,44,19.30
2013,10,23,16,45,19.40
2013,10,23,16,46,19.40
2013,10,23,16,47,19.40
2013,10,23,16,48,19.40
2013,10,23,16,49,19.40
2013,10,23,16,50,19.40
2013,10,23,16,51,19.40
2013,10,23,16,52,19.50
2013,10,23,16,53,19.50
2013,10,23,16,54,19.50
2013,10,23,16,55,19.50
2013,10,23,16,56,19.50
2013,10,23,16,57,19.50
2013,10,23,16,58,19.50
2013,10,23,16,59,19.50
2013,10,23,17,00,19.50
2013,10,23,17,01,19.50
2013,10,23,17,02,19.40
2013,10,23,17,03,19.40
2013,10,23,17,04,19.40
2013,10,23,17,05,19.30
2013,10,23,17,06,19.30
2013,10,23,17,07,19.20
2013,10,23,17,08,19.10
2013,10,23,17,09,19.00
2013,10,23,17,10,19.00
2013,10,23,17,11,18.90
2013,10,23,17,12,18.90
2013,10,23,17,13,18.90
2013,10,23,17,14,18.80
2013,10,23,17,15,18.80
2013,10,23,17,16,18.80
2013,10,23,17,17,18.70
2013,10,23,17,18,18.70
2013,10,23,17,19,18.60
2013,10,23,17,20,18.60
2013,10,23,17,21,18.50
2013,10,23,17,22,18.50
2013,10,23,17,23,18.50
2013,10,23,17,24,18.40
2013,10,23,17,25,18.40
2013,10,23,17,26,18.40
2013,10,23,17,27,18.40
2013,10,23,17,28,18.40
2013,10,23,17,29,18.30
2013,10,23,17,30,18.30
2013,10,23,17,31,18.20
2013,10,23,17,32,18.20
2013,10,23,17,33,18.20
2013,10,23,17,34,18.10
2013,10,23,17,35,18.10
2013,10,23,17,36,18.00
2013,10,23,17,37,17.90
2013,10,23,17,38,17.80
2013,10,23,17,39,17.80
2013,10,23,17,40,17.70
2013,10,23,17,41,17.60
2013,10,23,17,42,17.60
2013,10,23,17,43,17.50
2013,10,23,17,44,17.40
2013,10,23,17,45,17.40
2013,10,23,17,46,17.30
2013,10,23,17,47,17.30